Location: Newark
(42.9858°N, 0.6717°E)
Time: 22:46:47
(UTC+00:00)

N. Korean satellite - Visible Passes

Search period start: 29 October 2020 00:00
Search period end: 08 November 2020 00:00
Orbit: 452 x 505 km, 97.2° (Epoch: 28 October)

Date Brightness Start Highest point End Pass type
(mag) Time Alt. Az. Time Alt. Az. Time Alt. Az.
29 Oct 9.8 04:36:02 10° NE 04:38:04 15° E 04:40:06 10° SE visible
30 Oct 6.3 05:42:03 10° N 05:45:27 68° WNW 05:48:50 10° SSW visible
30 Oct 10.4 17:53:47 10° WSW 17:54:46 11° W 17:55:45 10° WNW visible
31 Oct 7.4 05:15:58 10° NNE 05:19:19 50° E 05:22:38 10° S visible
31 Oct 9.5 17:25:36 10° SSW 17:28:26 22° W 17:31:15 10° NW visible
01 Nov 9.1 04:50:18 10° NE 04:53:04 23° E 04:55:50 10° SSE visible
02 Nov 10.2 04:25:45 10° ENE 04:26:43 11° E 04:27:43 10° ESE visible
02 Nov 6.8 05:57:03 10° N 06:00:18 41° WNW 06:03:33 10° SW visible
03 Nov 6.5 05:30:45 10° NNE 05:34:12 84° ESE 05:37:37 10° S visible
03 Nov 9.9 17:41:22 10° SW 17:43:24 15° W 17:45:27 10° WNW visible
04 Nov 8.2 05:04:48 10° NNE 05:07:59 35° E 05:11:11 10° SSE visible
04 Nov 8.8 17:13:59 10° SSW 17:17:06 30° W 17:20:12 10° NNW visible
05 Nov 9.6 04:39:23 10° NE 04:41:42 17° E 04:44:00 10° SE visible
06 Nov 6.4 05:45:36 10° N 05:49:00 60° WNW 05:52:24 10° SSW visible
07 Nov 7.1 05:19:26 10° NNE 05:22:50 57° E 05:26:15 10° S visible
07 Nov 9.7 17:29:23 10° SW 17:31:59 20° W 17:34:35 10° NW visible
